IRIDIUM 105

Last updated on Fri Sep 11 2026 00:03:06 GMT+0000 (Coordinated Universal Time)

1 41921U 17003E 26253.62200470 .00000162 00000+0 50668-4 0 9994 2 41921 86.4002 21.1388 0002286 99.2323 260.9131 14.34218632507387
UTC large
Height (km)
Speed (km/s)
/
Latitude / Longitude
Inclination (degrees)
Orbital Period (minutes)
Azimuth
Elevation
Range (km)
Doppler Factor

Next 0 passes for location: London (51.5072 / 0.1276)

No passes found over London.
IRIDIUM 105